Year,Month,Day,Hour,Minute,Value (Times are PST for temperature in C)
2012,08,25,00,00,10.70
2012,08,25,00,01,10.70
2012,08,25,00,02,10.70
2012,08,25,00,03,10.70
2012,08,25,00,04,10.70
2012,08,25,00,05,10.60
2012,08,25,00,06,10.60
2012,08,25,00,07,10.60
2012,08,25,00,08,10.60
2012,08,25,00,09,10.60
2012,08,25,00,10,10.60
2012,08,25,00,11,10.60
2012,08,25,00,12,10.60
2012,08,25,00,13,10.50
2012,08,25,00,14,10.50
2012,08,25,00,15,10.50
2012,08,25,00,16,10.40
2012,08,25,00,17,10.40
2012,08,25,00,18,10.40
2012,08,25,00,19,10.40
2012,08,25,00,20,10.40
2012,08,25,00,21,10.30
2012,08,25,00,22,10.30
2012,08,25,00,23,10.30
2012,08,25,00,24,10.30
2012,08,25,00,25,10.30
2012,08,25,00,26,10.20
2012,08,25,00,27,10.20
2012,08,25,00,28,10.20
2012,08,25,00,29,10.20
2012,08,25,00,30,10.20
2012,08,25,00,31,10.20
2012,08,25,00,32,10.20
2012,08,25,00,33,10.10
2012,08,25,00,34,10.10
2012,08,25,00,35,10.10
2012,08,25,00,36,10.20
2012,08,25,00,37,10.20
2012,08,25,00,38,10.20
2012,08,25,00,39,10.20
2012,08,25,00,40,10.20
2012,08,25,00,41,10.20
2012,08,25,00,42,10.20
2012,08,25,00,43,10.20
2012,08,25,00,44,10.20
2012,08,25,00,45,10.20
2012,08,25,00,46,10.20
2012,08,25,00,47,10.20
2012,08,25,00,48,10.20
2012,08,25,00,49,10.20
2012,08,25,00,50,10.20
2012,08,25,00,51,10.10
2012,08,25,00,52,10.10
2012,08,25,00,53,10.10
2012,08,25,00,54,10.10
2012,08,25,00,55,10.10
2012,08,25,00,56,10.00
2012,08,25,00,57,10.00
2012,08,25,00,58,9.90
2012,08,25,00,59,9.90
2012,08,25,01,00,9.90
2012,08,25,01,01,9.90
2012,08,25,01,02,9.90
2012,08,25,01,03,9.80
2012,08,25,01,04,9.80
2012,08,25,01,05,9.80
2012,08,25,01,06,9.90
2012,08,25,01,07,9.90
2012,08,25,01,08,9.90
2012,08,25,01,09,9.90
2012,08,25,01,10,10.00
2012,08,25,01,11,10.00
2012,08,25,01,12,10.00
2012,08,25,01,13,10.00
2012,08,25,01,14,10.00
2012,08,25,01,15,10.00
2012,08,25,01,16,10.00
2012,08,25,01,17,9.90
2012,08,25,01,18,9.90
2012,08,25,01,19,9.90
2012,08,25,01,20,9.90
2012,08,25,01,21,9.90
2012,08,25,01,22,9.90
2012,08,25,01,23,9.90
2012,08,25,01,24,9.80
2012,08,25,01,25,9.80
2012,08,25,01,26,9.80
2012,08,25,01,27,9.80
2012,08,25,01,28,9.80
2012,08,25,01,29,9.80
2012,08,25,01,30,9.80
2012,08,25,01,31,9.70
2012,08,25,01,32,9.70
2012,08,25,01,33,9.70
2012,08,25,01,34,9.70
2012,08,25,01,35,9.70
2012,08,25,01,36,9.70
2012,08,25,01,37,9.70
2012,08,25,01,38,9.70
2012,08,25,01,39,9.70
2012,08,25,01,40,9.70
2012,08,25,01,41,9.70
2012,08,25,01,42,9.70
2012,08,25,01,43,9.70
2012,08,25,01,44,9.70
2012,08,25,01,45,9.70
2012,08,25,01,46,9.70
2012,08,25,01,47,9.70
2012,08,25,01,48,9.70
2012,08,25,01,49,9.70
2012,08,25,01,50,9.70
2012,08,25,01,51,9.60
2012,08,25,01,52,9.60
2012,08,25,01,53,9.60
2012,08,25,01,54,9.60
2012,08,25,01,55,9.60
2012,08,25,01,56,9.60
2012,08,25,01,57,9.60
2012,08,25,01,58,9.60
2012,08,25,01,59,9.60
2012,08,25,02,00,9.60
2012,08,25,02,01,9.60
2012,08,25,02,02,9.60
2012,08,25,02,03,9.60
2012,08,25,02,04,9.60
2012,08,25,02,05,9.60
2012,08,25,02,06,9.60
2012,08,25,02,07,9.60
2012,08,25,02,08,9.60
2012,08,25,02,09,9.60
2012,08,25,02,10,9.60
2012,08,25,02,11,9.50
2012,08,25,02,12,9.50
2012,08,25,02,13,9.50
2012,08,25,02,14,9.50
2012,08,25,02,15,9.50
2012,08,25,02,16,9.50
2012,08,25,02,17,9.50
2012,08,25,02,18,9.50
2012,08,25,02,19,9.60
2012,08,25,02,20,9.60
2012,08,25,02,21,9.60
2012,08,25,02,22,9.60
2012,08,25,02,23,9.60
2012,08,25,02,24,9.60
2012,08,25,02,25,9.60
2012,08,25,02,26,9.60
2012,08,25,02,27,9.60
2012,08,25,02,28,9.60
2012,08,25,02,29,9.60
2012,08,25,02,30,9.60
2012,08,25,02,31,9.60
2012,08,25,02,32,9.60
2012,08,25,02,33,9.60
2012,08,25,02,34,9.60
2012,08,25,02,35,9.60
2012,08,25,02,36,9.60
2012,08,25,02,37,9.60
2012,08,25,02,38,9.50
2012,08,25,02,39,9.50
2012,08,25,02,40,9.50
2012,08,25,02,41,9.50
2012,08,25,02,42,9.50
2012,08,25,02,43,9.50
2012,08,25,02,44,9.50
2012,08,25,02,45,9.40
2012,08,25,02,46,9.40
2012,08,25,02,47,9.40
2012,08,25,02,48,9.40
2012,08,25,02,49,9.40
2012,08,25,02,50,9.40
2012,08,25,02,51,9.40
2012,08,25,02,52,9.40
2012,08,25,02,53,9.40
2012,08,25,02,54,9.40
2012,08,25,02,55,9.40
2012,08,25,02,56,9.40
2012,08,25,02,57,9.40
2012,08,25,02,58,9.40
2012,08,25,02,59,9.40
2012,08,25,03,00,9.40
2012,08,25,03,01,9.50
2012,08,25,03,02,9.50
2012,08,25,03,03,9.50
2012,08,25,03,04,9.50
2012,08,25,03,05,9.50
2012,08,25,03,06,9.50
2012,08,25,03,07,9.50
2012,08,25,03,08,9.50
2012,08,25,03,09,9.60
2012,08,25,03,10,9.60
2012,08,25,03,11,9.60
2012,08,25,03,12,9.60
2012,08,25,03,13,9.60
2012,08,25,03,14,9.60
2012,08,25,03,15,9.60
2012,08,25,03,16,9.60
2012,08,25,03,17,9.60
2012,08,25,03,18,9.60
2012,08,25,03,19,9.60
2012,08,25,03,20,9.60
2012,08,25,03,21,9.60
2012,08,25,03,22,9.60
2012,08,25,03,23,9.60
2012,08,25,03,24,9.60
2012,08,25,03,25,9.60
2012,08,25,03,26,9.60
2012,08,25,03,27,9.70
2012,08,25,03,28,9.70
2012,08,25,03,29,9.70
2012,08,25,03,30,9.70
2012,08,25,03,31,9.70
2012,08,25,03,32,9.70
2012,08,25,03,33,9.70
2012,08,25,03,34,9.70
2012,08,25,03,35,9.70
2012,08,25,03,36,9.70
2012,08,25,03,37,9.70
2012,08,25,03,38,9.70
2012,08,25,03,39,9.70
2012,08,25,03,40,9.80
2012,08,25,03,41,9.80
2012,08,25,03,42,9.80
2012,08,25,03,43,9.80
2012,08,25,03,44,9.80
2012,08,25,03,45,9.80
2012,08,25,03,46,9.80
2012,08,25,03,47,9.80
2012,08,25,03,48,9.80
2012,08,25,03,49,9.80
2012,08,25,03,50,9.80
2012,08,25,03,51,9.90
2012,08,25,03,52,9.90
2012,08,25,03,53,9.90
2012,08,25,03,54,9.90
2012,08,25,03,55,9.80
2012,08,25,03,56,9.80
2012,08,25,03,57,9.80
2012,08,25,03,58,9.80
2012,08,25,03,59,9.80
2012,08,25,04,00,9.80
2012,08,25,04,01,9.90
2012,08,25,04,02,9.90
2012,08,25,04,03,9.90
2012,08,25,04,04,9.90
2012,08,25,04,05,9.90
2012,08,25,04,06,9.90
2012,08,25,04,07,9.90
2012,08,25,04,08,9.90
2012,08,25,04,09,9.90
2012,08,25,04,10,9.90
2012,08,25,04,11,9.90
2012,08,25,04,12,9.90
2012,08,25,04,13,9.90
2012,08,25,04,14,9.90
2012,08,25,04,15,9.90
2012,08,25,04,16,9.90
2012,08,25,04,17,9.90
2012,08,25,04,18,9.90
2012,08,25,04,19,9.90
2012,08,25,04,20,9.90
2012,08,25,04,21,9.90
2012,08,25,04,22,10.00
2012,08,25,04,23,10.00
2012,08,25,04,24,10.00
2012,08,25,04,25,10.00
2012,08,25,04,26,10.00
2012,08,25,04,27,10.10
2012,08,25,04,28,10.10
2012,08,25,04,29,10.10
2012,08,25,04,30,10.10
2012,08,25,04,31,10.10
2012,08,25,04,32,10.10
2012,08,25,04,33,10.10
2012,08,25,04,34,10.10
2012,08,25,04,35,10.10
2012,08,25,04,36,10.10
2012,08,25,04,37,10.10
2012,08,25,04,38,10.10
2012,08,25,04,39,10.10
2012,08,25,04,40,10.10
2012,08,25,04,41,10.10
2012,08,25,04,42,10.10
2012,08,25,04,43,10.10
2012,08,25,04,44,10.10
2012,08,25,04,45,10.10
2012,08,25,04,46,10.20
2012,08,25,04,47,10.20
2012,08,25,04,48,10.20
2012,08,25,04,49,10.20
2012,08,25,04,50,10.20
2012,08,25,04,51,10.20
2012,08,25,04,52,10.20
2012,08,25,04,53,10.30
2012,08,25,04,54,10.30
2012,08,25,04,55,10.30
2012,08,25,04,56,10.30
2012,08,25,04,57,10.30
2012,08,25,04,58,10.30
2012,08,25,04,59,10.30
2012,08,25,05,00,10.30
2012,08,25,05,01,10.30
2012,08,25,05,02,10.30
2012,08,25,05,03,10.30
2012,08,25,05,04,10.30
2012,08,25,05,05,10.30
2012,08,25,05,06,10.30
2012,08,25,05,07,10.30
2012,08,25,05,08,10.30
2012,08,25,05,09,10.30
2012,08,25,05,10,10.30
2012,08,25,05,11,10.30
2012,08,25,05,12,10.30
2012,08,25,05,13,10.30
2012,08,25,05,14,10.30
2012,08,25,05,15,10.30
2012,08,25,05,16,10.30
2012,08,25,05,17,10.30
2012,08,25,05,18,10.30
2012,08,25,05,19,10.30
2012,08,25,05,20,10.30
2012,08,25,05,21,10.30
2012,08,25,05,22,10.30
2012,08,25,05,23,10.30
2012,08,25,05,24,10.30
2012,08,25,05,25,10.20
2012,08,25,05,26,10.20
2012,08,25,05,27,10.20
2012,08,25,05,28,10.20
2012,08,25,05,29,10.30
2012,08,25,05,30,10.30
2012,08,25,05,31,10.30
2012,08,25,05,32,10.30
2012,08,25,05,33,10.30
2012,08,25,05,34,10.30
2012,08,25,05,35,10.30
2012,08,25,05,36,10.30
2012,08,25,05,37,10.30
2012,08,25,05,38,10.40
2012,08,25,05,39,10.40
2012,08,25,05,40,10.40
2012,08,25,05,41,10.40
2012,08,25,05,42,10.40
2012,08,25,05,43,10.40
2012,08,25,05,44,10.40
2012,08,25,05,45,10.40
2012,08,25,05,46,10.30
2012,08,25,05,47,10.30
2012,08,25,05,48,10.30
2012,08,25,05,49,10.30
2012,08,25,05,50,10.40
2012,08,25,05,51,10.40
2012,08,25,05,52,10.40
2012,08,25,05,53,10.40
2012,08,25,05,54,10.30
2012,08,25,05,55,10.30
2012,08,25,05,56,10.30
2012,08,25,05,57,10.30
2012,08,25,05,58,10.30
2012,08,25,05,59,10.30
2012,08,25,06,00,10.30
2012,08,25,06,01,10.30
2012,08,25,06,02,10.30
2012,08,25,06,03,10.30
2012,08,25,06,04,10.30
2012,08,25,06,05,10.30
2012,08,25,06,06,10.30
2012,08,25,06,07,10.30
2012,08,25,06,08,10.30
2012,08,25,06,09,10.30
2012,08,25,06,10,10.30
2012,08,25,06,11,10.30
2012,08,25,06,12,10.30
2012,08,25,06,13,10.30
2012,08,25,06,14,10.30
2012,08,25,06,15,10.30
2012,08,25,06,16,10.30
2012,08,25,06,17,10.30
2012,08,25,06,18,10.30
2012,08,25,06,19,10.40
2012,08,25,06,20,10.40
2012,08,25,06,21,10.40
2012,08,25,06,22,10.40
2012,08,25,06,23,10.40
2012,08,25,06,24,10.40
2012,08,25,06,25,10.40
2012,08,25,06,26,10.40
2012,08,25,06,27,10.40
2012,08,25,06,28,10.40
2012,08,25,06,29,10.40
2012,08,25,06,30,10.40
2012,08,25,06,31,10.40
2012,08,25,06,32,10.40
2012,08,25,06,33,10.40
2012,08,25,06,34,10.40
2012,08,25,06,35,10.40
2012,08,25,06,36,10.40
2012,08,25,06,37,10.40
2012,08,25,06,38,10.40
2012,08,25,06,39,10.50
2012,08,25,06,40,10.50
2012,08,25,06,41,10.50
2012,08,25,06,42,10.50
2012,08,25,06,43,10.50
2012,08,25,06,44,10.50
2012,08,25,06,45,10.50
2012,08,25,06,46,10.50
2012,08,25,06,47,10.50
2012,08,25,06,48,10.50
2012,08,25,06,49,10.50
2012,08,25,06,50,10.60
2012,08,25,06,51,10.60
2012,08,25,06,52,10.70
2012,08,25,06,53,10.70
2012,08,25,06,54,10.70
2012,08,25,06,55,10.70
2012,08,25,06,56,10.70
2012,08,25,06,57,10.70
2012,08,25,06,58,10.70
2012,08,25,06,59,10.70
2012,08,25,07,00,10.70
2012,08,25,07,01,10.60
2012,08,25,07,02,10.60
2012,08,25,07,03,10.60
2012,08,25,07,04,10.60
2012,08,25,07,05,10.60
2012,08,25,07,06,10.60
2012,08,25,07,07,10.60
2012,08,25,07,08,10.60
2012,08,25,07,09,10.70
2012,08,25,07,10,10.70
2012,08,25,07,11,10.70
2012,08,25,07,12,10.70
2012,08,25,07,13,10.70
2012,08,25,07,14,10.70
2012,08,25,07,15,10.80
2012,08,25,07,16,10.80
2012,08,25,07,17,10.80
2012,08,25,07,18,10.80
2012,08,25,07,19,10.90
2012,08,25,07,20,10.90
2012,08,25,07,21,10.90
2012,08,25,07,22,10.90
2012,08,25,07,23,10.90
2012,08,25,07,24,10.90
2012,08,25,07,25,10.90
2012,08,25,07,26,10.90
2012,08,25,07,27,11.00
2012,08,25,07,28,11.00
2012,08,25,07,29,11.10
2012,08,25,07,30,11.10
2012,08,25,07,31,11.10
2012,08,25,07,32,11.10
2012,08,25,07,33,11.20
2012,08,25,07,34,11.20
2012,08,25,07,35,11.20
2012,08,25,07,36,11.30
2012,08,25,07,37,11.30
2012,08,25,07,38,11.40
2012,08,25,07,39,11.40
2012,08,25,07,40,11.50
2012,08,25,07,41,11.60
2012,08,25,07,42,11.70
2012,08,25,07,43,11.80
2012,08,25,07,44,11.90
2012,08,25,07,45,12.00
2012,08,25,07,46,12.10
2012,08,25,07,47,12.20
2012,08,25,07,48,12.30
2012,08,25,07,49,12.40
2012,08,25,07,50,12.50
2012,08,25,07,51,12.50
2012,08,25,07,52,12.50
2012,08,25,07,53,12.50
2012,08,25,07,54,12.60
2012,08,25,07,55,12.70
2012,08,25,07,56,12.80
2012,08,25,07,57,12.90
2012,08,25,07,58,13.00
2012,08,25,07,59,13.20
2012,08,25,08,00,13.40
2012,08,25,08,01,13.50
2012,08,25,08,02,13.60
2012,08,25,08,03,13.70
2012,08,25,08,04,13.90
2012,08,25,08,05,14.10
2012,08,25,08,06,14.20
2012,08,25,08,07,14.30
2012,08,25,08,08,14.30
2012,08,25,08,09,14.40
2012,08,25,08,10,14.60
2012,08,25,08,11,14.90
2012,08,25,08,12,15.00
2012,08,25,08,13,15.00
2012,08,25,08,14,15.00
2012,08,25,08,15,15.10
2012,08,25,08,16,15.30
2012,08,25,08,17,15.50
2012,08,25,08,18,15.50
2012,08,25,08,19,15.60
2012,08,25,08,20,15.60
2012,08,25,08,21,15.60
2012,08,25,08,22,15.70
2012,08,25,08,23,15.80
2012,08,25,08,24,15.90
2012,08,25,08,25,15.90
2012,08,25,08,26,16.00
2012,08,25,08,27,16.10
2012,08,25,08,28,16.10
2012,08,25,08,29,16.00
2012,08,25,08,30,16.00
2012,08,25,08,31,15.90
2012,08,25,08,32,15.90
2012,08,25,08,33,15.80
2012,08,25,08,34,15.80
2012,08,25,08,35,15.80
2012,08,25,08,36,15.80
2012,08,25,08,37,15.80
2012,08,25,08,38,15.80
2012,08,25,08,39,15.80
2012,08,25,08,40,15.90
2012,08,25,08,41,15.80
2012,08,25,08,42,15.80
2012,08,25,08,43,15.70
2012,08,25,08,44,15.70
2012,08,25,08,45,15.70
2012,08,25,08,46,15.70
2012,08,25,08,47,15.80
2012,08,25,08,48,15.90
2012,08,25,08,49,15.90
2012,08,25,08,50,16.00
2012,08,25,08,51,16.10
2012,08,25,08,52,16.10
2012,08,25,08,53,16.10
2012,08,25,08,54,16.20
2012,08,25,08,55,16.30
2012,08,25,08,56,16.30
2012,08,25,08,57,16.30
2012,08,25,08,58,16.40
2012,08,25,08,59,16.30
2012,08,25,09,00,16.40
2012,08,25,09,01,16.40
2012,08,25,09,02,16.50
2012,08,25,09,03,16.60
2012,08,25,09,04,16.70
2012,08,25,09,05,16.80
2012,08,25,09,06,16.80
2012,08,25,09,07,16.90
2012,08,25,09,08,16.90
2012,08,25,09,09,16.90
2012,08,25,09,10,16.90
2012,08,25,09,11,17.00
2012,08,25,09,12,17.10
2012,08,25,09,13,17.10
2012,08,25,09,14,17.20
2012,08,25,09,15,17.20
2012,08,25,09,16,17.20
2012,08,25,09,17,17.10
2012,08,25,09,18,17.10
2012,08,25,09,19,17.10
2012,08,25,09,20,17.10
2012,08,25,09,21,17.10
2012,08,25,09,22,17.20
2012,08,25,09,23,17.20
2012,08,25,09,24,17.20
2012,08,25,09,25,17.30
2012,08,25,09,26,17.30
2012,08,25,09,27,17.40
2012,08,25,09,28,17.40
2012,08,25,09,29,17.50
2012,08,25,09,30,17.60
2012,08,25,09,31,17.60
2012,08,25,09,32,17.70
2012,08,25,09,33,17.80
2012,08,25,09,34,17.80
2012,08,25,09,35,17.90
2012,08,25,09,36,18.00
2012,08,25,09,37,18.10
2012,08,25,09,38,18.10
2012,08,25,09,39,18.10
2012,08,25,09,40,18.00
2012,08,25,09,41,18.00
2012,08,25,09,42,18.20
2012,08,25,09,43,18.30
2012,08,25,09,44,18.40
2012,08,25,09,45,18.50
2012,08,25,09,46,18.50
2012,08,25,09,47,18.50
2012,08,25,09,48,18.50
2012,08,25,09,49,18.50
2012,08,25,09,50,18.60
2012,08,25,09,51,18.60
2012,08,25,09,52,18.50
2012,08,25,09,53,18.50
2012,08,25,09,54,18.40
2012,08,25,09,55,18.30
2012,08,25,09,56,18.30
2012,08,25,09,57,18.30
2012,08,25,09,58,18.30
2012,08,25,09,59,18.30
2012,08,25,10,00,18.30
2012,08,25,10,01,18.40
2012,08,25,10,02,18.50
2012,08,25,10,03,18.50
2012,08,25,10,04,18.40
2012,08,25,10,05,18.40
2012,08,25,10,06,18.30
2012,08,25,10,07,18.30
2012,08,25,10,08,18.10
2012,08,25,10,09,18.00
2012,08,25,10,10,17.90
2012,08,25,10,11,18.00
2012,08,25,10,12,18.00
2012,08,25,10,13,18.10
2012,08,25,10,14,18.20
2012,08,25,10,15,18.20
2012,08,25,10,16,18.20
2012,08,25,10,17,18.20
2012,08,25,10,18,18.10
2012,08,25,10,19,18.10
2012,08,25,10,20,18.00
2012,08,25,10,21,18.00
2012,08,25,10,22,18.10
2012,08,25,10,23,18.20
2012,08,25,10,24,18.20
2012,08,25,10,25,18.20
2012,08,25,10,26,18.20
2012,08,25,10,27,18.20
2012,08,25,10,28,18.30
2012,08,25,10,29,18.30
2012,08,25,10,30,18.30
2012,08,25,10,31,18.40
2012,08,25,10,32,18.40
2012,08,25,10,33,18.30
2012,08,25,10,34,18.20
2012,08,25,10,35,18.10
2012,08,25,10,36,18.00
2012,08,25,10,37,17.90
2012,08,25,10,38,17.90
2012,08,25,10,39,17.90
2012,08,25,10,40,17.90
2012,08,25,10,41,18.00
2012,08,25,10,42,18.00
2012,08,25,10,43,18.00
2012,08,25,10,44,18.00
2012,08,25,10,45,17.90
2012,08,25,10,46,17.90
2012,08,25,10,47,18.00
2012,08,25,10,48,18.10
2012,08,25,10,49,18.10
2012,08,25,10,50,18.00
2012,08,25,10,51,18.10
2012,08,25,10,52,18.10
2012,08,25,10,53,18.20
2012,08,25,10,54,18.30
2012,08,25,10,55,18.40
2012,08,25,10,56,18.50
2012,08,25,10,57,18.60
2012,08,25,10,58,18.70
2012,08,25,10,59,18.80
2012,08,25,11,00,18.80
2012,08,25,11,01,18.80
2012,08,25,11,02,18.80
2012,08,25,11,03,18.80
2012,08,25,11,04,18.80
2012,08,25,11,05,18.80
2012,08,25,11,06,18.90
2012,08,25,11,07,19.00
2012,08,25,11,08,19.10
2012,08,25,11,09,19.10
2012,08,25,11,10,19.20
2012,08,25,11,11,19.10
2012,08,25,11,12,19.10
2012,08,25,11,13,19.00
2012,08,25,11,14,19.00
2012,08,25,11,15,19.10
2012,08,25,11,16,19.10
2012,08,25,11,17,19.10
2012,08,25,11,18,19.10
2012,08,25,11,19,19.10
2012,08,25,11,20,19.10
2012,08,25,11,21,19.10
2012,08,25,11,22,19.20
2012,08,25,11,23,19.20
2012,08,25,11,24,19.20
2012,08,25,11,25,19.10
2012,08,25,11,26,19.10
2012,08,25,11,27,19.00
2012,08,25,11,28,18.90
2012,08,25,11,29,18.80
2012,08,25,11,30,18.80
2012,08,25,11,31,18.80
2012,08,25,11,32,18.70
2012,08,25,11,33,18.70
2012,08,25,11,34,18.70
2012,08,25,11,35,18.70
2012,08,25,11,36,18.70
2012,08,25,11,37,18.70
2012,08,25,11,38,18.80
2012,08,25,11,39,18.80
2012,08,25,11,40,18.80
2012,08,25,11,41,18.80
2012,08,25,11,42,18.90
2012,08,25,11,43,18.90
2012,08,25,11,44,18.90
2012,08,25,11,45,19.00
2012,08,25,11,46,19.00
2012,08,25,11,47,19.10
2012,08,25,11,48,19.20
2012,08,25,11,49,19.20
2012,08,25,11,50,19.30
2012,08,25,11,51,19.30
2012,08,25,11,52,19.30
2012,08,25,11,53,19.30
2012,08,25,11,54,19.30
2012,08,25,11,55,19.30
2012,08,25,11,56,19.30
2012,08,25,11,57,19.30
2012,08,25,11,58,19.30
2012,08,25,11,59,19.20
2012,08,25,12,00,19.20
2012,08,25,12,01,19.20
2012,08,25,12,02,19.20
2012,08,25,12,03,19.20
2012,08,25,12,04,19.30
2012,08,25,12,05,19.40
2012,08,25,12,06,19.40
2012,08,25,12,07,19.40
2012,08,25,12,08,19.50
2012,08,25,12,09,19.60
2012,08,25,12,10,19.70
2012,08,25,12,11,19.70
2012,08,25,12,12,19.70
2012,08,25,12,13,19.70
2012,08,25,12,14,19.70
2012,08,25,12,15,19.70
2012,08,25,12,16,19.70
2012,08,25,12,17,19.70
2012,08,25,12,18,19.70
2012,08,25,12,19,19.80
2012,08,25,12,20,19.80
2012,08,25,12,21,19.80
2012,08,25,12,22,19.80
2012,08,25,12,23,19.80
2012,08,25,12,24,19.80
2012,08,25,12,25,19.80
2012,08,25,12,26,19.80
2012,08,25,12,27,19.90
2012,08,25,12,28,19.90
2012,08,25,12,29,19.90
2012,08,25,12,30,20.00
2012,08,25,12,31,20.00
2012,08,25,12,32,20.20
2012,08,25,12,33,20.20
2012,08,25,12,34,20.20
2012,08,25,12,35,20.20
2012,08,25,12,36,20.20
2012,08,25,12,37,20.20
2012,08,25,12,38,20.20
2012,08,25,12,39,20.20
2012,08,25,12,40,20.20
2012,08,25,12,41,20.20
2012,08,25,12,42,20.30
2012,08,25,12,43,20.30
2012,08,25,12,44,20.30
2012,08,25,12,45,20.20
2012,08,25,12,46,20.20
2012,08,25,12,47,20.20
2012,08,25,12,48,20.30
2012,08,25,12,49,20.30
2012,08,25,12,50,20.30
2012,08,25,12,51,20.40
2012,08,25,12,52,20.40
2012,08,25,12,53,20.40
2012,08,25,12,54,20.40
2012,08,25,12,55,20.30
2012,08,25,12,56,20.30
2012,08,25,12,57,20.30
2012,08,25,12,58,20.30
2012,08,25,12,59,20.30
2012,08,25,13,00,20.30
2012,08,25,13,01,20.30
2012,08,25,13,02,20.30
2012,08,25,13,03,20.40
2012,08,25,13,04,20.40
2012,08,25,13,05,20.50
2012,08,25,13,06,20.50
2012,08,25,13,07,20.50
2012,08,25,13,08,20.50
2012,08,25,13,09,20.40
2012,08,25,13,10,20.40
2012,08,25,13,11,20.40
2012,08,25,13,12,20.50
2012,08,25,13,13,20.60
2012,08,25,13,14,20.60
2012,08,25,13,15,20.60
2012,08,25,13,16,20.70
2012,08,25,13,17,20.70
2012,08,25,13,18,20.80
2012,08,25,13,19,20.80
2012,08,25,13,20,20.80
2012,08,25,13,21,20.90
2012,08,25,13,22,20.90
2012,08,25,13,23,20.90
2012,08,25,13,24,21.00
2012,08,25,13,25,21.00
2012,08,25,13,26,21.10
2012,08,25,13,27,21.10
2012,08,25,13,28,21.10
2012,08,25,13,29,21.00
2012,08,25,13,30,21.00
2012,08,25,13,31,20.90
2012,08,25,13,32,20.90
2012,08,25,13,33,20.90
2012,08,25,13,34,20.80
2012,08,25,13,35,20.90
2012,08,25,13,36,20.90
2012,08,25,13,37,20.90
2012,08,25,13,38,21.00
2012,08,25,13,39,21.10
2012,08,25,13,40,21.20
2012,08,25,13,41,21.30
2012,08,25,13,42,21.40
2012,08,25,13,43,21.30
2012,08,25,13,44,21.20
2012,08,25,13,45,21.10
2012,08,25,13,46,21.10
2012,08,25,13,47,21.20
2012,08,25,13,48,21.30
2012,08,25,13,49,21.30
2012,08,25,13,50,21.40
2012,08,25,13,51,21.40
2012,08,25,13,52,21.40
2012,08,25,13,53,21.40
2012,08,25,13,54,21.40
2012,08,25,13,55,21.40
2012,08,25,13,56,21.40
2012,08,25,13,57,21.30
2012,08,25,13,58,21.30
2012,08,25,13,59,21.30
2012,08,25,14,00,21.20
2012,08,25,14,01,21.20
2012,08,25,14,02,21.20
2012,08,25,14,03,21.10
2012,08,25,14,04,21.10
2012,08,25,14,05,21.10
2012,08,25,14,06,21.20
2012,08,25,14,07,21.30
2012,08,25,14,08,21.30
2012,08,25,14,09,21.30
2012,08,25,14,10,21.30
2012,08,25,14,11,21.40
2012,08,25,14,12,21.40
2012,08,25,14,13,21.50
2012,08,25,14,14,21.50
2012,08,25,14,15,21.50
2012,08,25,14,16,21.50
2012,08,25,14,17,21.50
2012,08,25,14,18,21.60
2012,08,25,14,19,21.60
2012,08,25,14,20,21.70
2012,08,25,14,21,21.70
2012,08,25,14,22,21.60
2012,08,25,14,23,21.60
2012,08,25,14,24,21.70
2012,08,25,14,25,21.60
2012,08,25,14,26,21.60
2012,08,25,14,27,21.70
2012,08,25,14,28,21.70
2012,08,25,14,29,21.70
2012,08,25,14,30,21.70
2012,08,25,14,31,21.70
2012,08,25,14,32,21.70
2012,08,25,14,33,21.70
2012,08,25,14,34,21.70
2012,08,25,14,35,21.70
2012,08,25,14,36,21.60
2012,08,25,14,37,21.50
2012,08,25,14,38,21.50
2012,08,25,14,39,21.60
2012,08,25,14,40,21.70
2012,08,25,14,41,21.70
2012,08,25,14,42,21.70
2012,08,25,14,43,21.70
2012,08,25,14,44,21.80
2012,08,25,14,45,21.80
2012,08,25,14,46,21.70
2012,08,25,14,47,21.70
2012,08,25,14,48,21.70
2012,08,25,14,49,21.80
2012,08,25,14,50,21.80
2012,08,25,14,51,21.90
2012,08,25,14,52,22.00
2012,08,25,14,53,22.00
2012,08,25,14,54,22.10
2012,08,25,14,55,22.10
2012,08,25,14,56,22.20
2012,08,25,14,57,22.30
2012,08,25,14,58,22.30
2012,08,25,14,59,22.40
2012,08,25,15,00,22.30
2012,08,25,15,01,22.20
2012,08,25,15,02,22.20
2012,08,25,15,03,22.10
2012,08,25,15,04,22.10
2012,08,25,15,05,22.10
2012,08,25,15,06,22.10
2012,08,25,15,07,22.20
2012,08,25,15,08,22.30
2012,08,25,15,09,22.30
2012,08,25,15,10,22.30
2012,08,25,15,11,22.30
2012,08,25,15,12,22.20
2012,08,25,15,13,22.20
2012,08,25,15,14,22.10
2012,08,25,15,15,22.10
2012,08,25,15,16,22.10
2012,08,25,15,17,22.10
2012,08,25,15,18,22.20
2012,08,25,15,19,22.30
2012,08,25,15,20,22.40
2012,08,25,15,21,22.40
2012,08,25,15,22,22.40
2012,08,25,15,23,22.40
2012,08,25,15,24,22.40
2012,08,25,15,25,22.30
2012,08,25,15,26,22.20
2012,08,25,15,27,22.30
2012,08,25,15,28,22.40
2012,08,25,15,29,22.40
2012,08,25,15,30,22.40
2012,08,25,15,31,22.40
2012,08,25,15,32,22.30
2012,08,25,15,33,22.30
2012,08,25,15,34,22.30
2012,08,25,15,35,22.30
2012,08,25,15,36,22.30
2012,08,25,15,37,22.30
2012,08,25,15,38,22.20
2012,08,25,15,39,22.30
2012,08,25,15,40,22.30
2012,08,25,15,41,22.40
2012,08,25,15,42,22.40
2012,08,25,15,43,22.50
2012,08,25,15,44,22.50
2012,08,25,15,45,22.60
2012,08,25,15,46,22.60
2012,08,25,15,47,22.70
2012,08,25,15,48,22.60
2012,08,25,15,49,22.70
2012,08,25,15,50,22.70
2012,08,25,15,51,22.70
2012,08,25,15,52,22.80
2012,08,25,15,53,22.90
2012,08,25,15,54,23.00
2012,08,25,15,55,23.20
2012,08,25,15,56,23.30
2012,08,25,15,57,23.30
2012,08,25,15,58,23.30
2012,08,25,15,59,23.30
2012,08,25,16,00,23.30
2012,08,25,16,01,23.20
2012,08,25,16,02,23.20
2012,08,25,16,03,23.10
2012,08,25,16,04,23.10
2012,08,25,16,05,23.00
2012,08,25,16,06,22.90
2012,08,25,16,07,22.80
2012,08,25,16,08,22.80
2012,08,25,16,09,22.70
2012,08,25,16,10,22.70
2012,08,25,16,11,22.70
2012,08,25,16,12,22.70
2012,08,25,16,13,22.70
2012,08,25,16,14,22.70
2012,08,25,16,15,22.70
2012,08,25,16,16,22.70
2012,08,25,16,17,22.70
2012,08,25,16,18,22.70
2012,08,25,16,19,22.70
2012,08,25,16,20,22.70
2012,08,25,16,21,22.70
2012,08,25,16,22,22.70
2012,08,25,16,23,22.70
2012,08,25,16,24,22.70
2012,08,25,16,25,22.80
2012,08,25,16,26,22.80
2012,08,25,16,27,22.80
2012,08,25,16,28,22.80
2012,08,25,16,29,22.80
2012,08,25,16,30,22.80
2012,08,25,16,31,22.80
2012,08,25,16,32,22.80
2012,08,25,16,33,22.80
2012,08,25,16,34,22.80
2012,08,25,16,35,22.80
2012,08,25,16,36,22.80
2012,08,25,16,37,22.80
2012,08,25,16,38,22.80
2012,08,25,16,39,22.80
2012,08,25,16,40,22.80
2012,08,25,16,41,22.70
2012,08,25,16,42,22.60
2012,08,25,16,43,22.60
2012,08,25,16,44,22.60
2012,08,25,16,45,22.70
2012,08,25,16,46,22.80
2012,08,25,16,47,22.80
2012,08,25,16,48,22.80
2012,08,25,16,49,22.80
2012,08,25,16,50,22.90
2012,08,25,16,51,22.90
2012,08,25,16,52,23.00
2012,08,25,16,53,23.00
2012,08,25,16,54,23.00
2012,08,25,16,55,23.00
2012,08,25,16,56,23.00
2012,08,25,16,57,23.00
2012,08,25,16,58,23.00
2012,08,25,16,59,23.10
2012,08,25,17,00,23.10
2012,08,25,17,01,23.20
2012,08,25,17,02,23.20
2012,08,25,17,03,23.20
2012,08,25,17,04,23.20
2012,08,25,17,05,23.20
2012,08,25,17,06,23.20
2012,08,25,17,07,23.20
2012,08,25,17,08,23.20
2012,08,25,17,09,23.20
2012,08,25,17,10,23.20
2012,08,25,17,11,23.20
2012,08,25,17,12,23.20
2012,08,25,17,13,23.20
2012,08,25,17,14,23.20
2012,08,25,17,15,23.10
2012,08,25,17,16,23.10
2012,08,25,17,17,23.10
2012,08,25,17,18,23.00
2012,08,25,17,19,23.00
2012,08,25,17,20,22.90
2012,08,25,17,21,22.90
2012,08,25,17,22,22.90
2012,08,25,17,23,22.80
2012,08,25,17,24,22.80
2012,08,25,17,25,22.80
2012,08,25,17,26,22.80
2012,08,25,17,27,22.80
2012,08,25,17,28,22.80